KC2BJT Weather Reports


time (UTC)temp
C
wind
direction
speed
KPH
gust
KPH
rain 1hr
cm
rain 24hr
cm
rain mn
cm
humidity
%
barometer
mb
20260504081524 0 344 0.0 0.0 0.00 0.00 0.00 87 1012.0
20260504050007 1 344 0.0 0.0 0.00 0.00 0.00 81 1011.8
20260504044523 1 344 0.0 0.0 0.00 0.00 0.00 81 1011.8
20260504043020 1 344 0.0 0.0 0.00 0.00 0.00 80 1011.8
20260504041520 1 344 0.0 0.0 0.00 0.00 0.00 80 1011.8
20260504040004 2 344 0.0 0.0 0.00 0.00 0.00 78 1011.7
20260504034509 2 344 0.0 0.0 0.00 0.00 0.00 78 1011.6
20260504033012 2 344 0.0 0.0 0.00 0.00 0.00 77 1011.5
20260504031516 2 344 0.0 0.0 0.00 0.00 0.00 77 1011.5
20260504030023 2 344 0.0 0.0 0.00 0.00 0.00 77 1011.4
20260504024510 2 344 0.0 0.0 0.00 0.00 0.00 76 1011.6
20260504023009 3 344 0.0 0.0 0.00 0.00 0.00 73 1011.6
20260504021522 3 344 0.0 0.0 0.00 0.00 0.00 73 1011.6
20260504020016 4 344 0.0 0.0 0.00 0.00 0.00 71 1011.6
20260504014522 4 344 0.0 0.0 0.00 0.00 0.00 69 1011.4
20260504013010 5 344 0.0 0.0 0.00 0.00 0.00 68 1011.1
20260504011509 6 344 0.0 0.0 0.00 0.00 0.00 65 1011.2
20260504010017 6 344 0.0 0.0 0.00 0.00 0.00 62 1011.0
20260504004524 7 344 0.0 0.0 0.00 0.00 0.00 59 1011.1
20260504003023 8 344 0.0 0.0 0.00 0.00 0.00 54 1010.9
20260504001509 9 344 0.0 0.0 0.00 0.00 0.00 54 1010.7
20260504000012 10 344 0.0 0.0 0.00 0.00 0.00 50 1010.6
20260503234518 10 344 0.0 3.2 0.00 0.00 0.00 47 1010.4
20260503233022 10 19 0.0 11.3 0.00 0.00 0.00 45 1010.3
20260503231522 11 352 0.0 3.2 0.00 0.00 0.00 42 1010.3
20260503230011 11 45 0.0 12.9 0.00 0.00 0.00 41 1010.2
20260503224514 11 140 1.6 4.8 0.00 0.00 0.00 39 1010.1
20260503223018 12 352 3.2 8.0 0.00 0.00 0.00 38 1010.0
20260503221530 12 273 1.6 3.2 0.00 0.00 0.00 37 1009.8
20260503220008 12 132 1.6 11.3 0.00 0.00 0.00 37 1009.8
20260503214514 12 298 3.2 6.4 0.00 0.00 0.00 35 1009.8
20260503213027 12 240 4.8 14.5 0.00 0.00 0.00 35 1009.5
20260503211523 12 132 4.8 12.9 0.00 0.00 0.00 33 1009.5
20260503210024 12 191 4.8 9.7 0.00 0.00 0.00 33 1009.6
20260503204514 13 352 3.2 12.9 0.00 0.00 0.00 31 1009.5
20260503203016 13 38 3.2 17.7 0.00 0.00 0.00 32 1009.6
20260503201528 14 78 6.4 14.5 0.00 0.00 0.00 30 1009.6
20260503200004 14 326 3.2 11.3 0.00 0.00 0.00 31 1009.8
20260503194508 13 236 4.8 16.1 0.00 0.00 0.00 31 1009.5
20260503193014 13 213 4.8 14.5 0.00 0.00 0.00 31 1010.1
20260503191521 13 17 4.8 16.1 0.00 0.00 0.00 30 1010.0
20260503190024 13 310 3.2 11.3 0.00 0.00 0.00 31 1010.1
20260503184507 12 253 0.0 16.1 0.00 0.00 0.00 33 1010.2
20260503183023 12 78 4.8 16.1 0.00 0.00 0.00 32 1010.4
20260503181527 13 40 3.2 16.1 0.00 0.00 0.00 32 1010.7
20260503180020 13 184 1.6 11.3 0.00 0.00 0.00 32 1010.7
20260503174524 12 126 3.2 8.0 0.00 0.00 0.00 36 1010.7
20260503173036 12 5 3.2 14.5 0.00 0.00 0.00 34 1011.0
20260503171513 11 55 3.2 12.9 0.00 0.00 0.00 36 1011.1